AKST,Max TemperatureF,Mean TemperatureF,Min TemperatureF,Max Dew PointF,MeanDew PointF,Min DewpointF,Max Humidity, Mean Humidity, Min Humidity, Max Sea Level PressureIn, Mean Sea Level PressureIn, Min Sea Level PressureIn, Max VisibilityMiles, Mean VisibilityMiles, Min VisibilityMiles, Max Wind SpeedMPH, Mean Wind SpeedMPH, Max Gust SpeedMPH,PrecipitationIn, CloudCover, Events, WindDirDegrees
2012-12-1,14,6,-3,1,-4,-9,78,71,57,29.57,29.51,29.43,10,10,10,7,2,,0.00,0,,100
2012-12-2,10,2,-6,2,-7,-13,80,72,62,29.44,29.37,29.31,10,10,10,7,1,,0.00,0,,96
2012-12-3,12,3,-6,-4,-8,-13,78,62,40,29.55,29.49,29.37,10,9,2,13,4,,0.00,1,,93
2012-12-4,8,0,-9,-10,-13,-16,75,52,42,29.54,29.51,29.49,10,10,10,14,9,,0.00,0,,46
2012-12-5,1,-8,-17,-8,-15,-24,77,72,62,29.63,29.58,29.52,10,10,10,7,3,,0.00,0,,109
2012-12-6,3,-4,-10,-4,-9,-17,79,74,68,29.91,29.76,29.64,10,10,10,6,1,,0.00,2,,118
2012-12-7,4,-4,-10,0,-7,-16,85,79,76,29.95,29.93,29.91,10,6,0,10,2,,0.00,3,Fog-Snow,80
2012-12-8,19,8,-2,16,11,-7,93,83,58,29.96,29.50,29.31,10,4,1,17,7,23,0.08,7,Snow,68
2012-12-9,26,22,19,24,19,15,93,86,80,29.54,29.40,29.31,10,9,2,9,5,,0.00,5,Snow,89
2012-12-10,28,26,23,27,25,22,100,94,92,29.78,29.61,29.54,10,7,0,10,2,,0.01,8,Snow,53
2012-12-11,26,20,15,26,22,13,100,93,86,29.91,29.81,29.62,10,7,2,9,3,,0.02,7,Snow,192
2012-12-12,30,25,22,27,22,19,100,92,86,29.62,29.36,29.26,10,2,0,14,5,,0.34,8,Fog-Rain-Snow,25
2012-12-13,33,28,24,28,26,23,93,83,70,29.34,29.31,29.27,10,10,10,17,10,23,0.03,8,,221
2012-12-14,24,21,18,23,18,16,94,92,86,29.30,29.21,29.15,10,5,0,7,1,,0.00,8,Fog-Snow,59
2012-12-15,19,8,-4,16,5,-10,93,86,78,29.28,29.16,29.13,10,10,9,13,3,,0.00,3,Snow,356
2012-12-16,2,-6,-13,-1,-11,-18,85,79,75,29.67,29.57,29.31,10,6,0,7,2,,0.00,1,Fog,100
2012-12-17,-3,-10,-16,-8,-15,-24,85,76,70,29.79,29.70,29.59,10,4,0,10,3,,0.00,1,Fog-Snow,104
2012-12-18,5,-3,-11,1,-11,-17,85,79,76,29.57,29.51,29.43,10,6,0,10,3,,0.00,2,Snow,98
2012-12-19,15,5,-5,2,-4,-11,83,67,54,29.88,29.72,29.51,10,10,10,14,6,18,0.00,0,,89
2012-12-20,19,10,0,2,-1,-7,78,53,31,30.11,30.01,29.89,10,10,10,20,13,30,0.00,0,,56
2012-12-21,5,-4,-13,1,-10,-20,83,78,73,30.10,30.04,29.94,10,10,10,6,1,,0.00,0,,98
2012-12-22,12,-2,-16,4,-12,-23,85,67,43,29.92,29.81,29.74,10,10,10,17,5,26,0.00,1,,75
2012-12-23,7,5,3,-5,-7,-10,64,58,53,29.77,29.69,29.61,10,10,10,13,9,,0.00,0,,73
2012-12-24,28,14,1,24,6,-7,88,71,56,29.61,29.49,29.45,10,10,10,20,8,21,0.00,2,Snow,90
2012-12-25,41,32,23,27,23,16,100,86,36,29.65,29.57,29.43,10,6,1,17,8,33,0.01,6,Snow,311
2012-12-26,24,18,12,18,16,9,92,83,74,29.64,29.49,29.36,10,10,8,9,4,,0.00,3,,98
2012-12-27,29,23,17,20,16,12,86,79,64,29.44,29.36,29.31,10,10,10,18,4,,0.00,3,,59
2012-12-28,28,23,18,21,18,14,85,76,67,29.58,29.53,29.45,10,10,9,18,5,,0.00,6,,50
2012-12-29,46,36,27,31,26,20,83,64,40,29.51,29.37,29.26,10,10,10,28,10,50,0.00,4,Rain,340
2012-12-30,43,36,30,36,31,26,88,76,58,29.40,29.12,28.98,10,10,7,28,9,34,0.02,3,Rain,38
2012-12-31,43,34,26,30,23,18,87,62,40,29.77,29.64,29.44,10,10,10,16,6,,0.00,1,,34